Change the Weather History Date:

Saturday, October 20, 2012

  Actual Average Record
Temperature  
Mean Temperature 62 °F -  
Max Temperature 66 °F 56 °F 70 °F (2011)
Min Temperature 59 °F 42 °F 33 °F (1972)
Degree Days  
Heating Degree Days 2    
Growing Degree Days 12 (Base 50)    
Moisture  
Dew Point 62 °F    
Average Humidity 95    
Maximum Humidity 100    
Minimum Humidity 88    
Precipitation  
Precipitation 0.17 in - - ()
Sea Level Pressure  
Sea Level Pressure 29.71 in    
Wind  
Wind Speed 8 mph (SSW)    
Max Wind Speed 12 mph    
Max Gust Speed 22 mph    
Visibility 5 miles    
Events Fog , Rain    
Averages and records for this station are not official NWS values.
T = Trace of Precipitation, MM = Missing Value Source: NWS Daily Summary

Daily Weather History Graph

Daily Weather History Graph

Search for Another Location

Airport or City:

Trip Planner

Search our weather history database for the weather conditions in past years. The results will help you decide how hot, cold, wet, or windy it might be!

Date:

Astronomy

Oct. 20, 2012 Rise Set
Actual Time 6:58 AM EDT 5:50 PM EDT
Civil Twilight 6:30 AM EDT 6:18 PM EDT
Nautical Twilight 5:57 AM EDT 6:50 PM EDT
Astronomical Twilight 5:25 AM EDT 7:22 PM EDT
Moon 12:33 PM EDT (10/20) 10:30 PM EDT (10/20)
Length of Visible Light 11h 48m
Length of Day
10h 52m
Waxing Crescent, 34% of the Moon is Illuminated
Oct 20
Waxing Crescent
Oct 21
First Quarter
Oct 29
Full
Nov 6
Last Quarter
Nov 13
New

Hourly Weather History & Observations

Time (EDT) Temp. Dew Point Humidity Pressure Visibility Wind Dir Wind Speed Gust Speed Precip Events Conditions
12:52 AM 63.0 °F 62.1 °F 97% 29.81 in 4.0 mi South 10.4 mph 16.1 mph 0.00 in Rain Light Rain
1:52 AM 63.0 °F 62.1 °F 97% 29.79 in 3.0 mi Variable 6.9 mph - 0.00 in   Overcast
2:52 AM 64.0 °F 63.0 °F 96% 29.78 in 4.0 mi SSE 9.2 mph 17.3 mph N/A   Overcast
3:52 AM 63.0 °F 63.0 °F 100% 29.76 in 4.0 mi South 8.1 mph - N/A   Overcast
4:39 AM 64.4 °F 64.4 °F 100% 29.76 in 5.0 mi South 8.1 mph - N/A   Overcast
4:50 AM 64.4 °F 62.6 °F 94% 29.76 in 4.0 mi SSE 5.8 mph - N/A   Overcast
4:52 AM 64.0 °F 63.0 °F 96% 29.76 in 4.0 mi SSE 6.9 mph - N/A   Overcast
5:52 AM 64.9 °F 64.0 °F 97% 29.75 in 5.0 mi Variable 5.8 mph - 0.01 in Rain Light Rain
6:45 AM 64.4 °F 62.6 °F 94% 29.74 in 4.0 mi South 11.5 mph 21.9 mph 0.01 in Rain Rain
6:52 AM 63.0 °F 63.0 °F 100% 29.74 in 4.0 mi SSE 8.1 mph 19.6 mph 0.03 in Rain Rain
7:10 AM 62.6 °F 62.6 °F 100% 29.72 in 4.0 mi SSE 11.5 mph 21.9 mph 0.05 in Rain Rain
7:32 AM 64.4 °F 64.4 °F 100% 29.66 in 3.0 mi SE 10.4 mph 21.9 mph 0.13 in Rain Rain
7:44 AM 64.4 °F 64.4 °F 100% 29.70 in 6.0 mi SE 9.2 mph 19.6 mph 0.13 in Rain Light Rain
7:52 AM 64.0 °F 63.0 °F 96% 29.72 in 3.0 mi SSE 8.1 mph 18.4 mph 0.13 in   Overcast
8:52 AM 62.1 °F 62.1 °F 100% 29.74 in 2.0 mi SSW 4.6 mph - N/A   Overcast
9:20 AM 62.6 °F 62.6 °F 100% 29.73 in 3.0 mi SSW 5.8 mph - N/A   Overcast
9:31 AM 62.6 °F 60.8 °F 94% 29.73 in 4.0 mi SSW 5.8 mph - N/A   Overcast
9:52 AM 63.0 °F 61.0 °F 93% 29.72 in 8.0 mi SSW 5.8 mph - N/A   Overcast
10:14 AM 62.6 °F 62.6 °F 100% 29.71 in 5.0 mi SSW 8.1 mph - N/A   Overcast
10:28 AM 62.6 °F 62.6 °F 100% 29.72 in 1.8 mi SSW 8.1 mph - N/A   Overcast
10:52 AM 63.0 °F 62.1 °F 97% 29.72 in 3.0 mi SW 5.8 mph - N/A   Overcast
11:28 AM 62.6 °F 62.6 °F 100% 29.70 in 1.8 mi SW 5.8 mph - 0.00 in Rain Light Rain
11:37 AM 64.4 °F 62.6 °F 94% 29.70 in 3.0 mi Variable 5.8 mph - 0.00 in   Overcast
11:52 AM 64.0 °F 63.0 °F 96% 29.71 in 8.0 mi SW 8.1 mph - 0.00 in   Overcast
12:16 PM 66.2 °F 64.4 °F 94% 29.68 in 10.0 mi SW 5.8 mph - N/A   Overcast
12:25 PM 66.2 °F 64.4 °F 94% 29.68 in 10.0 mi SW 5.8 mph - N/A   Mostly Cloudy
12:50 PM 66.2 °F 62.6 °F 88% 29.68 in 10.0 mi SW 9.2 mph 16.1 mph N/A   Scattered Clouds
12:52 PM 66.0 °F 63.0 °F 90% 29.68 in 10.0 mi Variable 5.8 mph 16.1 mph N/A   Scattered Clouds
12:54 PM 66.2 °F 62.6 °F 88% 29.68 in 10.0 mi SSW 9.2 mph 16.1 mph N/A   Mostly Cloudy
1:15 PM 64.4 °F 62.6 °F 94% 29.68 in 2.5 mi SW 8.1 mph - N/A   Overcast
1:22 PM 64.4 °F 62.6 °F 94% 29.68 in 0.8 mi SW 9.2 mph - N/A   Overcast
1:52 PM 63.0 °F 63.0 °F 100% 29.68 in 0.5 mi SW 6.9 mph - N/A Fog Fog
2:16 PM 62.6 °F 62.6 °F 100% 29.68 in 2.0 mi SW 11.5 mph 19.6 mph N/A   Overcast
2:25 PM 64.4 °F 62.6 °F 94% 29.68 in 6.0 mi WSW 9.2 mph 19.6 mph N/A   Overcast
2:52 PM 64.0 °F 62.1 °F 93% 29.69 in 9.0 mi SW 8.1 mph - N/A   Overcast
3:29 PM 62.6 °F 60.8 °F 94% 29.68 in 10.0 mi SW 8.1 mph - N/A   Scattered Clouds
3:39 PM 62.6 °F 60.8 °F 94% 29.68 in 2.5 mi SSW 8.1 mph - N/A   Mostly Cloudy
3:43 PM 62.6 °F 60.8 °F 94% 29.68 in 0.8 mi SW 8.1 mph - N/A   Mist
3:52 PM 62.1 °F 61.0 °F 96% 29.69 in 0.5 mi SW 10.4 mph 18.4 mph N/A Fog Fog
4:11 PM 62.6 °F 60.8 °F 94% 29.69 in 1.8 mi SW 8.1 mph - N/A   Overcast
4:14 PM 62.6 °F 60.8 °F 94% 29.69 in 3.0 mi SW 9.2 mph 16.1 mph N/A   Overcast
4:39 PM 62.6 °F 60.8 °F 94% 29.70 in 9.0 mi SW 9.2 mph - N/A   Overcast
5:19 PM 60.8 °F 59.0 °F 94% 29.70 in 8.0 mi SW 5.8 mph - N/A   Scattered Clouds
5:52 PM 60.1 °F 57.9 °F 93% 29.71 in 6.0 mi Variable 4.6 mph - N/A   Clear
6:08 PM 60.8 °F 57.2 °F 88% 29.71 in 6.0 mi SSW 3.5 mph - N/A   Scattered Clouds
6:17 PM 60.8 °F 57.2 °F 88% 29.71 in 6.0 mi SW 3.5 mph - N/A   Mostly Cloudy
6:52 PM 59.0 °F 57.9 °F 96% 29.73 in 5.0 mi SSW 5.8 mph - N/A   Scattered Clouds
7:52 PM 60.1 °F 57.0 °F 90% 29.73 in 10.0 mi SW 6.9 mph - N/A   Clear
9:52 PM 60.1 °F 57.0 °F 90% 29.74 in 10.0 mi SW 10.4 mph - N/A   Clear
10:52 PM 60.1 °F 57.0 °F 90% 29.75 in 10.0 mi WSW 9.2 mph 17.3 mph N/A   Clear